Location: Bastogne Gables
(35.1554°N, 78.9900°W)
Time: 03:29:22
(UTC+00:00)

Cosmos 1812 Rocket - Pass Details

Date: 29 October 2020
Orbit: 605 x 633 km, 82.5° (Epoch: 26 November)

Event Time Altitude Azimuth Distance (km) Brightness Sun altitude
Rises 23:46:01 0° 183° (S) 2,891 7.1 -17.3°
Reaches altitude 10° 23:48:15 10° 182° (S) 1,985 6.2 -17.8°
Maximum altitude 23:52:38 81° 97° (E) 632 3.4 -18.7°
Drops below altitude 10° 23:57:02 10° 9° (N) 1,981 6.0 -19.6°
Sets 23:59:15 0° 8° (N) 2,886 6.9 -20.0°
